This is the latest recevied weather packets stored in our database for station/object W3TMB. If no packets are shown the sender has not sent any weather packets the latest 10 day(s).
| Time | Temp. | Humidity | Pressure | Rain* | Wind** | Luminosity | Snow |
|---|---|---|---|---|---|---|---|
| 1777674249 | 9.44° C | 87% | 1009.1 hPa | 0 mm | - | 70 W/m² | - |
| 1777673945 | 9.44° C | 90% | 1009.6 hPa | 0 mm | - | 75 W/m² | - |
| 1777673641 | 10° C | 91% | 1009.6 hPa | 0 mm | - | 56 W/m² | - |
| 1777673340 | 9.44° C | 89% | 1009.6 hPa | 0 mm | - | 57 W/m² | - |
| 1777673036 | 10° C | 90% | 1009.5 hPa | 0 mm | - | 61 W/m² | - |
| 1777672733 | 10° C | 90% | 1009.8 hPa | 0 mm | - | - | - |
| 1777672429 | 10° C | 89% | 1009.6 hPa | 0 mm | - | 98 W/m² | - |
| 1777672125 | 9.44° C | 89% | 1009.5 hPa | 0 mm | - | 120 W/m² | - |
| 1777671820 | 9.44° C | 90% | 1009.2 hPa | 1.78 mm | - | 99 W/m² | - |
| 1777671516 | 10° C | 91% | 1009.5 hPa | 3.05 mm | - | 86 W/m² | - |
| 1777671213 | 9.44° C | 91% | 1009.5 hPa | 1.27 mm | - | 83 W/m² | - |
| 1777670909 | 9.44° C | 91% | 1009.4 hPa | 1.78 mm | - | 62 W/m² | - |
| 1777670605 | 9.44° C | 90% | 1009.4 hPa | 1.78 mm | - | 56 W/m² | - |
| 1777670297 | 9.44° C | 89% | 1009.5 hPa | 1.27 mm | - | 55 W/m² | - |
| 1777669994 | 9.44° C | 88% | 1009.6 hPa | 1.27 mm | - | 53 W/m² | - |
| 1777669691 | 10° C | 89% | 1009.5 hPa | 1.78 mm | - | 64 W/m² | - |
| 1777669389 | 10° C | 87% | 1009.4 hPa | 3.05 mm | - | 65 W/m² | - |
| 1777669084 | 10° C | 86% | 1009.4 hPa | 1.27 mm | - | 55 W/m² | - |
| 1777668781 | 10° C | 85% | 1009.5 hPa | 0 mm | - | 41 W/m² | - |
| 1777668478 | 10° C | 86% | 1009.4 hPa | 0 mm | - | 41 W/m² | - |
| 1777668174 | 10° C | 84% | 1009.4 hPa | 0 mm | - | 37 W/m² | - |
| 1777667871 | 10° C | 85% | 1009.5 hPa | 0 mm | - | 108 W/m² | - |
| 1777667569 | 10.56° C | 83% | 1009.3 hPa | 1.78 mm | - | 162 W/m² | - |
| 1777667265 | 10.56° C | 82% | 1008.9 hPa | 1.78 mm | - | 170 W/m² | - |
| 1777666962 | 10.56° C | 82% | 1009.1 hPa | 0 mm | - | 139 W/m² | - |
* Rain latest hour (hover to see other rain measurements)
** Current wind speed in m/s (hover to see current wind gust speed)